Weather History for Roseburg, OR

Change the Weather History Date:

Tuesday, February 26, 2013

  Actual Average Record
Temperature  
Mean Temperature 42 °F 47 °F  
Max Temperature 52 °F 55 °F 79 °F (1932)
Min Temperature 32 °F 38 °F 16 °F (1962)
Degree Days  
Heating Degree Days 23 18  
Month to date heating degree days 520 515  
Since 1 July heating degree days 2682 2834  
Cooling Degree Days 0 0  
Month to date cooling degree days 0 0  
Year to date cooling degree days 0 0  
Moisture  
Dew Point 34 °F    
Average Humidity 72    
Maximum Humidity 100    
Minimum Humidity 44    
Precipitation  
Precipitation 0.00 in 0.13 in 0.86 in (1974)
Month to date precipitation 0.71 3.69  
Year to date precipitation 3.12 8.78  
Sea Level Pressure  
Sea Level Pressure 30.36 in    
Wind  
Wind Speed 1 mph (SSE)    
Max Wind Speed 9 mph    
Max Gust Speed 12 mph    
Visibility 10 miles    
Events      
T = Trace of Precipitation, MM = Missing Value Source: NWS Daily Summary

Daily Weather History Graph

Daily Weather History Graph

Search for Another Location

Airport:

Trip Planner

Search our weather history database for the weather conditions in past years. The results will help you decide how hot, cold, wet, or windy it might be!

Date:

Astronomy

Feb. 26, 2013 Rise Set
Actual Time 6:53 AM PST 5:59 PM PST
Civil Twilight 6:25 AM PST 6:27 PM PST
Nautical Twilight 5:52 AM PST 7:00 PM PST
Astronomical Twilight 5:19 AM PST 7:33 PM PST
Moon 7:25 PM PST (2/26) 6:56 AM PST (2/26)
Length of Visible Light 12h 02m
Length of Day
11h 05m
Full, 99% of the Moon is Illuminated
Feb 26
Full
Mar 4
Last Quarter
Mar 11
New
Mar 19
First Quarter
Mar 27
Full

Hourly Weather History & Observations

Time (PST) Temp. Windchill Dew Point Humidity Pressure Visibility Wind Dir Wind Speed Gust Speed Precip Events Conditions
12:53 AM 37.0 °F - 34.0 °F 89% 30.43 in 10.0 mi Calm Calm - N/A   Mostly Cloudy
1:53 AM 36.0 °F - 33.1 °F 89% 30.43 in 10.0 mi Calm Calm - N/A   Mostly Cloudy
2:53 AM 33.1 °F - 30.9 °F 92% 30.42 in 10.0 mi Calm Calm - N/A   Clear
3:53 AM 32.0 °F - 30.0 °F 92% 30.41 in 10.0 mi Calm Calm - N/A   Clear
4:06 AM 33.8 °F - 30.2 °F 87% 30.40 in 10.0 mi Calm Calm - N/A   Scattered Clouds
4:15 AM 33.8 °F 30.8 °F 32.0 °F 93% 30.40 in 10.0 mi South 3.5 mph - N/A   Mostly Cloudy
4:53 AM 34.0 °F 31.0 °F 33.1 °F 96% 30.41 in 9.0 mi SE 3.5 mph - N/A   Overcast
5:00 AM 35.6 °F - 33.8 °F 93% 30.39 in 9.0 mi Calm Calm - N/A   Overcast
5:35 AM 35.6 °F - 33.8 °F 93% 30.40 in 9.0 mi Calm Calm - N/A   Overcast
5:53 AM 36.0 °F - 33.1 °F 89% 30.41 in 10.0 mi Calm Calm - N/A   Overcast
6:53 AM 36.0 °F - 34.0 °F 93% 30.40 in 9.0 mi Calm Calm - N/A   Overcast
7:53 AM 36.0 °F - 34.0 °F 93% 30.40 in 7.0 mi Calm Calm - N/A   Overcast
8:53 AM 36.0 °F - 34.0 °F 93% 30.39 in 6.0 mi Calm Calm - N/A   Overcast
9:24 AM 37.4 °F - 33.8 °F 87% 30.36 in 8.0 mi Calm Calm - N/A   Scattered Clouds
9:53 AM 37.9 °F - 34.0 °F 86% 30.37 in 10.0 mi Calm Calm - N/A   Partly Cloudy
10:53 AM 41.0 °F - 34.0 °F 76% 30.34 in 10.0 mi Calm Calm - N/A   Clear
11:53 AM 45.0 °F - 35.1 °F 68% 30.35 in 10.0 mi Calm Calm - N/A   Clear
12:53 PM 48.9 °F - 33.1 °F 54% 30.33 in 10.0 mi South 6.9 mph - N/A   Clear
1:53 PM 51.1 °F - 30.0 °F 44% 30.30 in 10.0 mi Variable 4.6 mph - N/A   Clear
2:53 PM 52.0 °F - 32.0 °F 47% 30.29 in 10.0 mi Calm Calm - N/A   Clear
4:53 PM 51.1 °F - 33.1 °F 50% 30.27 in 10.0 mi Calm Calm - N/A   Clear
5:53 PM 50.0 °F - 34.0 °F 54% 30.27 in 10.0 mi Calm Calm - N/A   Clear
6:53 PM 48.9 °F - 36.0 °F 61% 30.28 in 10.0 mi Calm Calm - N/A   Mostly Cloudy
7:53 PM 46.9 °F - 37.0 °F 68% 30.28 in 10.0 mi Calm Calm - N/A   Partly Cloudy
8:53 PM 46.0 °F - 37.9 °F 73% 30.29 in 10.0 mi Calm Calm - N/A   Scattered Clouds
9:53 PM 42.1 °F - 36.0 °F 79% 30.30 in 10.0 mi Calm Calm - N/A   Partly Cloudy
10:53 PM 39.9 °F - 35.1 °F 83% 30.32 in 10.0 mi Calm Calm - N/A   Clear
11:53 PM 39.0 °F - 35.1 °F 86% 30.31 in 10.0 mi Calm Calm - N/A   Mostly Cloudy